Temperature
15 15 16 16 19 20 20 20 19 19 19 17 17 18 19 19 19 18 14 14 14 14 14 14 14 15 15 15 15 15 16 16 16 16 16 16 16 16 16 16 16 15 15 15 15 15 15 15 15
15 15 15 17 20 20 20 19 18 18 17 16 16 17 18 17 14 13 13 13 14 14 14 14 14 14 15 15 15 15 15 15 15 15 16 16 15 15 15 15 15 15 15 15 15 15 15 15 15
14 15 15 18 19 20 20 18 18 17 16 15 16 16 16 15 13 13 13 13 13 13 14 14 14 14 14 15 15 15 15 15 15 15 15 15 15 15 15 15 15 15 15 15 15 15 15 15 15
14 14 16 18 18 17 18 18 16 16 15 15 16 16 14 12 12 12 13 13 13 13 13 14 14 14 14 14 14 15 15 15 15 15 15 15 15 15 15 15 15 15 15 15 15 15 15 15 15
13 15 17 17 17 17 16 15 15 16 16 15 15 16 14 12 12 13 13 12 12 13 13 13 14 14 14 14 14 14 14 15 15 15 15 15 15 15 15 15 15 15 15 15 15 15 14 14 14
13 16 17 17 17 16 15 14 14 15 15 14 14 15 14 12 12 12 12 12 12 12 13 13 13 13 14 14 14 14 14 14 14 14 14 14 15 15 14 15 15 15 15 15 14 14 14 14 14
14 15 16 17 16 16 15 13 14 14 15 13 13 14 13 11 11 11 11 11 11 12 12 12 13 13 13 13 13 13 14 14 14 14 14 14 14 14 14 14 14 14 14 14 14 14 14 14 14
11 14 15 15 15 15 13 12 12 13 13 11 11 13 12 10 10 10 10 11 11 11 11 12 12 12 13 13 13 13 13 13 14 14 14 14 14 14 14 14 14 14 14 14 14 14 14 14 14
10 14 14 14 14 13 11 11 10 10 11 10 10 11 10 10 10 10 10 10 11 11 11 11 11 12 12 12 13 13 13 13 13 13 13 13 13 13 13 13 14 14 14 14 14 14 14 13 13
11 13 13 12 12 12 10 10 10 10 11 10 10 9 9 9 9 9 9 10 10 10 10 11 11 11 11 12 12 12 12 12 13 13 13 13 13 13 13 13 13 13 13 13 13 13 13 13 13
9 11 10 10 9 9 9 9 9 10 11 10 9 9 8 8 8 9 9 9 9 9 10 10 10 11 11 11 12 12 12 12 12 12 12 12 13 13 13 13 13 13 13 13 13 13 13 13 13
9 8 8 8 7 7 8 8 8 9 9 8 8 8 8 8 8 8 8 8 8 9 9 10 10 10 11 11 11 11 11 12 12 12 12 12 12 12 12 12 12 12 12 13 12 12 12 12 12
8 7 7 6 6 6 7 7 8 8 7 7 7 7 7 7 7 7 8 8 8 8 9 9 9 10 10 10 11 11 11 11 12 12 12 12 12 12 12 12 12 12 12 12 12 12 12 12 12
7 7 6 6 6 6 7 7 7 7 6 6 6 6 7 7 7 7 7 7 7 8 8 8 9 9 10 10 10 10 11 11 11 11 11 12 12 12 12 12 12 12 12 12 12 12 12 12 11
6 7 7 7 6 6 7 8 8 7 6 6 6 6 6 6 6 7 7 7 7 7 7 8 8 9 9 9 10 10 10 10 11 11 11 11 11 11 12 12 12 12 12 12 12 11 11 11 11
7 8 8 7 7 6 7 9 9 7 6 6 6 5 5 5 5 6 6 6 7 7 7 7 7 8 8 9 9 9 9 10 10 10 10 11 11 11 11 11 11 11 11 11 11 11 11 11 11
8 8 8 8 7 7 7 8 8 6 6 6 6 5 5 5 5 5 5 6 6 6 7 7 7 7 7 8 8 9 9 9 9 10 10 10 10 10 11 11 11 11 11 11 11 11 10 10 10
8 8 8 8 7 6 7 7 8 6 6 6 6 5 5 5 5 5 5 5 5 6 6 6 6 7 7 7 8 8 8 8 9 9 9 10 10 10 10 10 10 10 10 10 10 10 10 10 10
6 6 7 7 6 6 6 7 7 7 6 6 6 5 4 4 4 4 4 5 5 5 5 6 6 6 6 7 7 7 8 8 8 8 9 9 9 9 10 10 10 10 10 10 10 10 10 9 9
5 6 6 6 6 5 5 6 7 6 6 5 5 4 4 3 3 3 4 4 4 4 5 5 5 6 6 6 6 7 7 8 8 8 8 9 9 9 9 9 9 9 9 9 9 9 9 9 9
5 5 5 5 5 5 5 7 7 6 5 4 4 4 3 3 3 3 3 4 4 4 4 5 5 5 5 5 6 6 6 7 7 7 8 8 8 8 9 9 9 9 9 9 9 9 9 9 9
5 4 4 4 4 5 5 7 7 6 6 5 4 4 3 3 2 2 2 3 3 3 4 4 4 5 5 5 5 5 6 6 7 7 7 7 7 8 8 8 8 8 9 9 9 9 9 8 8
3 3 3 3 4 4 4 4 7 5 5 5 4 3 3 2 2 2 2 2 3 3 3 4 4 4 4 4 5 5 5 6 6 6 6 7 7 7 7 8 8 8 8 8 8 8 8 8 8
2 3 3 3 4 4 4 5 7 5 4 4 3 2 2 2 2 2 2 2 2 3 3 3 3 3 4 4 4 4 5 5 6 6 6 6 6 7 7 7 7 8 8 8 8 8 8 8 8
2 3 5 5 5 6 4 4 5 4 3 3 2 2 1 1 1 1 1 2 2 2 2 2 3 3 3 3 4 4 4 5 5 6 6 6 6 6 6 7 7 7 7 7 7 7 7 7 7
1 3 4 5 6 6 3 4 5 3 2 1 1 1 1 1 1 1 1 1 1 2 2 2 2 2 2 3 3 4 4 4 5 5 5 5 5 6 6 6 6 7 7 7 7 7 7 7 7
1 2 1 3 2 3 5 4 4 3 2 1 1 0 0 0 0 0 1 1 1 1 2 2 2 2 2 2 2 3 3 4 4 4 5 5 5 5 5 6 6 6 6 6 6 6 6 7 7
0 0 1 2 3 5 5 5 5 3 2 1 1 0 -0 -1 -0 -0 0 0 1 1 1 2 2 2 2 2 2 2 3 3 3 4 4 4 5 5 5 5 6 6 6 6 6 6 6 6 6
-1 -0 0 1 2 4 5 5 3 2 1 0 -0 -1 -1 -1 -1 -1 0 0 0 1 1 1 1 2 2 2 2 2 2 3 3 3 4 4 4 4 5 5 5 5 5 5 5 5 6 6 6
-1 -0 -0 1 1 1 3 4 1 -0 -1 -1 -1 -2 -2 -2 -2 -1 -1 -0 -0 0 0 1 1 1 1 1 1 2 2 2 3 3 3 4 4 4 4 4 4 4 5 5 5 5 5 5 5
Wind_Speed
9 6 2 2 4 5 9 8 5 4 3 2 2 3 3 2 2 1 4 2 2 2 5 7 6 7 8 8 9 10 10 10 11 12 12 13 13 13 13 13 13 13 13 14 14 15 16 16 16
6 3 2 2 6 10 9 9 8 5 2 1 2 3 3 2 1 3 3 2 1 3 5 6 7 7 8 8 9 9 10 10 11 12 12 12 12 12 12 12 13 13 13 14 14 15 15 15 16
3 2 2 3 6 11 10 6 6 4 2 2 2 2 2 0 1 2 3 1 1 4 5 6 7 7 8 8 8 8 9 10 10 11 11 11 12 12 12 12 12 13 13 13 14 14 14 15 15
1 2 2 5 11 10 8 3 1 3 3 2 3 2 2 3 3 3 1 1 3 4 5 6 6 7 8 8 8 7 8 9 9 10 11 11 11 11 12 12 12 13 13 13 13 14 14 14 15
0 2 5 8 12 10 6 4 2 3 4 3 3 3 2 3 5 4 2 2 3 3 4 6 6 6 7 8 8 7 8 8 8 10 11 11 11 11 11 11 12 12 13 13 13 14 14 14 14
2 3 7 12 12 9 7 5 3 4 4 3 3 4 2 3 4 3 2 3 3 3 4 5 6 6 6 6 7 7 7 7 7 8 10 10 11 11 10 11 11 12 12 13 13 13 13 13 13
2 4 7 10 10 9 6 4 5 5 5 4 3 4 2 2 4 2 1 3 3 4 4 4 4 5 5 5 5 6 7 7 7 7 9 10 11 11 10 10 11 11 12 12 13 13 13 13 13
1 2 6 8 9 8 3 3 4 5 5 2 3 4 2 2 2 1 2 3 3 4 3 3 3 3 3 4 4 5 6 7 7 7 8 10 11 10 10 10 10 11 12 12 13 13 13 13 12
1 5 9 9 7 4 2 3 2 3 4 3 3 3 2 0 0 2 2 2 3 2 2 2 2 2 2 2 3 4 5 6 7 6 8 9 9 9 9 9 10 11 12 12 13 13 13 12 11
1 6 8 4 4 3 2 3 3 3 5 5 4 3 1 2 2 2 2 1 1 1 1 1 1 1 1 2 3 3 4 5 6 6 6 7 7 7 8 10 11 11 12 12 12 13 12 10 9
1 4 4 4 3 3 4 5 4 5 6 6 5 3 1 2 2 2 2 2 2 1 0 1 0 0 1 1 1 2 2 3 5 6 5 6 7 7 8 8 9 10 10 10 11 11 8 7 7
2 3 4 4 4 4 5 5 5 8 8 5 5 4 3 3 3 3 3 3 2 1 1 1 1 1 1 1 1 2 1 2 2 4 6 5 5 5 6 6 7 7 7 8 8 7 7 7 7
4 4 3 4 3 4 5 8 7 8 7 5 5 4 3 4 4 4 3 2 2 2 2 2 1 1 1 1 1 1 1 2 2 3 5 5 5 6 6 5 6 6 7 7 7 7 7 7 7
2 3 5 5 5 5 6 8 7 7 5 4 4 4 4 4 4 3 2 2 2 2 2 2 2 1 1 1 2 1 1 2 2 3 4 5 5 6 6 6 6 6 7 7 7 7 7 6 6
3 4 5 5 6 5 6 9 9 7 5 5 5 5 4 4 4 4 3 3 3 3 3 3 2 2 2 2 2 1 1 2 2 3 5 5 5 7 6 6 6 6 7 8 7 8 7 6 6
4 5 5 4 4 5 6 10 6 4 5 6 5 5 4 4 4 4 3 3 3 3 3 3 2 2 2 2 2 1 1 2 2 2 3 5 6 7 7 6 6 7 7 7 6 6 6 6 5
3 5 7 5 3 4 7 9 6 4 6 6 5 5 5 4 4 3 3 3 3 3 3 3 3 3 3 2 2 2 1 2 2 2 3 4 5 7 6 6 6 8 7 6 6 6 6 6 5
4 6 7 7 3 5 9 11 9 6 7 7 6 5 5 5 4 3 3 3 3 3 3 3 3 3 2 2 1 1 2 1 2 2 3 4 4 6 5 5 7 8 6 6 6 7 6 6 5
5 7 9 8 5 6 10 12 11 8 8 8 6 5 5 5 4 3 3 2 2 2 3 3 3 3 3 3 3 3 3 2 2 2 3 5 4 6 5 5 6 7 7 8 8 7 8 6 6
6 8 8 7 4 6 9 13 10 8 8 7 6 5 5 5 4 4 4 3 2 3 4 4 3 4 4 4 4 3 3 3 2 2 3 4 5 6 6 6 6 7 7 8 8 7 6 5 5
7 8 8 8 7 6 7 8 6 5 5 5 5 5 5 5 5 4 4 4 4 4 4 4 4 4 4 4 3 2 2 2 2 3 3 4 4 5 6 7 7 6 7 7 9 9 7 7 6
6 5 7 8 6 4 3 6 6 5 5 5 5 5 5 5 5 5 5 5 5 5 5 5 4 4 4 4 4 5 5 4 4 4 3 4 4 5 6 6 7 7 6 7 8 8 7 8 7
4 5 6 7 6 6 5 6 6 4 6 5 4 4 5 5 5 6 6 6 6 5 4 4 4 4 4 4 5 6 5 4 3 3 4 5 4 5 6 6 6 6 6 6 7 7 8 7 8
3 3 3 4 4 6 6 6 6 4 5 4 4 5 5 5 6 6 6 6 6 5 4 4 4 5 5 5 5 6 6 5 4 5 5 5 4 4 5 6 7 7 6 6 7 7 9 8 8
1 2 2 3 4 5 3 6 6 3 4 6 6 5 5 5 6 6 6 6 6 5 5 4 5 5 5 5 5 6 6 6 6 6 6 5 5 4 5 6 7 6 6 7 7 6 7 8 8
2 2 2 4 5 5 3 6 3 1 3 4 5 5 5 5 6 7 7 6 6 6 5 5 5 5 5 5 5 6 6 5 5 6 6 6 5 5 6 6 7 7 7 7 7 6 6 6 7
1 1 2 3 3 5 5 4 4 2 2 2 4 4 6 6 7 7 7 7 6 6 6 6 5 5 5 5 6 6 6 5 6 7 6 6 5 5 6 7 7 7 7 7 7 5 6 6 6
1 1 1 3 4 5 6 6 3 2 3 4 6 6 7 8 8 7 6 7 6 6 5 5 5 5 5 5 5 5 6 6 6 6 6 6 7 6 7 7 7 8 7 7 7 6 6 6 6
1 2 2 2 3 5 6 4 0 3 4 5 6 7 8 9 9 8 7 6 6 5 5 4 4 4 4 5 5 5 6 6 6 6 6 7 7 7 8 8 8 8 7 7 7 7 7 7 7
3 3 3 3 4 4 5 5 2 2 4 5 7 8 9 9 8 8 7 7 6 5 5 3 4 4 4 5 5 6 5 6 6 6 6 7 7 7 8 8 8 7 7 8 8 8 8 8 8
Wind_Direction
334 327 298 234 209 218 228 224 223 209 208 222 224 228 222 218 242 53 32 55 65 144 155 155 145 136 129 124 120 119 122 126 128 129 129 127 125 123 122 120 116 116 116 113 110 108 107 105 104
330 318 228 209 226 225 224 226 220 226 216 188 197 211 206 204 28 23 15 4 79 145 151 155 138 138 131 126 121 120 123 126 130 127 128 128 126 124 123 121 118 115 113 113 112 110 109 107 105
323 320 210 196 222 231 223 217 226 231 200 195 189 209 227 196 41 7 352 323 123 136 140 135 137 136 134 128 123 123 123 126 130 129 127 127 127 126 124 121 118 117 115 113 112 113 112 111 109
273 180 193 219 222 228 236 222 227 211 196 208 202 172 153 61 11 354 4 108 120 128 130 126 130 135 136 132 128 126 127 126 132 135 133 129 129 129 127 123 120 119 118 117 115 115 116 115 111
257 202 204 222 230 227 231 250 253 230 208 204 211 209 164 80 23 27 70 112 116 118 124 132 119 125 134 138 136 133 129 127 130 139 137 133 130 129 129 126 123 122 121 122 121 118 117 116 115
176 202 220 228 228 227 230 236 237 243 232 215 221 221 175 68 25 26 64 112 105 105 110 127 123 115 116 132 142 140 135 132 130 139 142 137 134 131 129 129 127 126 124 125 125 123 118 117 116
207 209 230 235 232 232 232 230 233 243 238 229 235 220 187 31 5 14 86 107 99 93 87 104 129 132 121 117 140 146 142 139 134 134 145 139 135 134 130 131 131 129 127 127 127 124 118 115 117
277 204 226 229 232 236 230 228 243 248 248 250 225 223 222 318 337 32 88 97 91 90 88 84 99 119 131 132 115 130 137 133 130 129 139 138 136 135 135 135 134 130 128 129 129 125 119 115 117
239 220 231 229 231 231 230 232 271 272 244 239 237 250 293 254 140 88 68 54 57 70 83 77 79 88 116 138 130 123 137 138 137 134 134 146 151 149 148 138 133 131 129 130 129 126 122 118 117
217 225 235 242 247 239 245 258 269 248 251 248 253 294 7 137 148 138 120 75 38 29 27 61 101 101 106 127 147 161 163 166 166 163 157 167 162 155 147 134 131 133 130 130 130 129 130 132 130
185 228 235 247 269 265 258 262 252 238 249 253 262 270 186 174 172 180 184 199 200 208 271 340 334 205 163 121 154 164 167 176 181 173 170 170 164 156 149 147 143 143 143 140 136 137 139 137 134
193 244 252 260 266 263 263 263 253 241 251 283 282 263 223 209 210 207 209 226 221 224 258 281 322 263 206 174 157 172 154 170 183 183 179 173 163 161 157 156 157 159 159 152 150 145 140 137 136
224 238 260 268 261 260 261 254 258 256 261 280 278 260 231 223 224 220 216 230 242 246 263 286 296 250 235 193 172 167 170 174 191 189 183 176 171 169 162 157 159 161 160 159 154 149 143 140 137
219 234 261 273 261 257 261 260 248 256 256 260 259 252 240 220 225 225 228 240 247 256 259 272 263 253 250 215 198 197 190 188 190 194 189 185 181 174 166 161 161 162 161 161 157 153 146 140 137
225 247 253 254 248 245 262 253 237 248 241 247 257 258 248 230 222 226 233 240 244 252 255 261 254 256 238 230 209 203 206 205 197 200 197 189 188 179 170 167 164 163 163 158 154 152 148 142 142
219 235 244 242 239 240 245 253 242 238 230 244 253 258 258 241 234 237 243 252 252 257 251 251 255 254 247 242 224 201 206 213 211 209 202 199 190 184 174 169 168 165 162 158 158 159 156 152 148
216 246 253 257 231 246 238 256 254 247 234 244 252 257 260 251 247 254 257 259 258 253 254 252 252 247 244 245 231 206 198 208 212 201 196 200 193 186 179 173 169 168 163 162 166 165 162 156 149
252 256 254 260 260 259 254 259 265 258 241 245 250 254 253 250 256 276 284 278 268 262 263 257 257 251 239 225 219 204 192 206 213 201 196 195 192 185 178 177 175 173 169 170 171 169 162 157 149
258 256 264 267 275 267 260 267 273 267 243 241 243 248 255 256 269 292 290 291 295 290 281 266 257 252 238 227 226 221 212 214 220 209 208 200 193 184 176 174 178 180 180 178 176 171 162 158 154
254 258 268 275 272 270 274 275 270 252 234 233 234 240 260 264 278 294 304 305 296 284 277 270 261 248 235 233 231 223 227 215 217 212 212 204 195 183 177 175 177 181 181 180 179 173 171 168 173
254 250 266 279 290 258 275 268 234 226 220 231 238 244 254 252 263 278 288 287 287 283 276 266 256 251 240 235 223 218 216 205 209 218 211 201 198 190 183 184 181 182 185 185 185 182 183 180 182
264 256 266 272 273 266 267 272 241 216 226 235 241 245 250 257 267 274 280 282 278 275 273 265 257 252 243 227 219 215 214 212 219 213 211 206 199 193 185 184 185 185 187 190 190 190 188 184 183
268 294 265 255 251 262 241 248 252 223 232 247 260 267 263 259 267 273 277 280 276 272 270 263 255 250 245 232 224 219 221 220 217 205 206 202 203 199 192 185 185 188 191 191 194 192 192 193 190
284 265 239 224 230 245 233 234 257 229 240 265 279 285 284 286 281 277 281 287 282 274 267 263 256 250 243 234 229 225 223 219 218 214 206 202 205 206 201 194 191 188 190 193 198 198 198 199 198
329 275 271 245 229 241 207 233 249 245 245 257 271 291 301 294 293 290 292 288 285 273 264 258 253 247 240 234 231 232 229 224 221 222 212 206 208 214 209 201 197 194 193 192 198 199 201 202 199
282 260 255 271 266 276 240 241 248 275 275 278 277 286 303 305 304 301 297 292 287 273 258 250 247 245 240 236 237 236 233 231 230 229 221 213 214 216 213 207 201 198 195 192 195 199 202 204 202
243 225 296 268 273 270 253 262 281 262 290 300 306 311 312 313 308 304 306 304 294 283 268 248 242 243 241 239 240 239 235 236 237 234 226 217 219 219 213 209 203 199 198 196 196 200 201 201 203
321 190 200 223 257 266 267 253 257 287 316 335 330 322 319 318 315 312 310 309 305 294 280 260 244 241 245 241 241 242 237 239 242 231 224 218 217 218 214 211 204 199 198 196 197 201 204 204 206
179 182 229 241 265 260 268 263 275 285 312 312 318 322 320 320 320 315 310 309 309 309 296 260 251 252 250 248 247 247 242 243 245 235 230 221 216 215 211 207 204 202 199 198 199 201 201 203 206
223 218 207 240 247 250 269 271 51 310 315 313 315 319 319 318 320 319 317 316 319 320 315 288 262 255 255 255 253 249 246 245 241 240 237 224 216 215 211 206 203 205 205 203 203 203 204 205 206
Height
1518 1519 1520 1523 1523 1519 1516 1516 1517 1519 1521 1524 1524 1524 1522 1522 1524 1529 1528 1525 1526 1527 1529 1530 1532 1533 1535 1536 1537 1538 1540 1541 1542 1543 1544 1544 1545 1546 1547 1548 1548 1549 1549 1550 1551 1551 1551 1552 1552
1518 1519 1522 1523 1518 1515 1514 1513 1517 1519 1522 1524 1525 1524 1523 1525 1527 1527 1525 1524 1525 1527 1528 1530 1532 1533 1535 1536 1537 1538 1539 1541 1542 1543 1544 1545 1546 1547 1548 1549 1549 1550 1551 1551 1552 1552 1553 1553 1554
1518 1519 1523 1519 1516 1510 1510 1514 1517 1521 1523 1524 1524 1524 1525 1526 1526 1526 1525 1524 1525 1527 1528 1530 1532 1533 1535 1536 1537 1538 1539 1541 1542 1543 1544 1545 1546 1547 1548 1549 1550 1551 1552 1552 1553 1554 1554 1555 1555
1519 1521 1522 1518 1514 1513 1513 1517 1520 1521 1523 1524 1524 1524 1525 1526 1526 1525 1524 1524 1525 1527 1528 1530 1532 1533 1535 1536 1537 1538 1539 1541 1542 1543 1544 1545 1547 1548 1549 1550 1551 1552 1552 1553 1554 1555 1555 1556 1557
1518 1520 1517 1515 1513 1515 1518 1521 1522 1521 1521 1523 1524 1523 1525 1525 1524 1524 1524 1524 1525 1526 1528 1529 1531 1533 1534 1536 1537 1538 1539 1540 1542 1543 1544 1545 1547 1548 1549 1550 1551 1552 1553 1554 1555 1555 1556 1557 1558
1520 1518 1513 1510 1511 1515 1520 1522 1523 1522 1522 1523 1524 1523 1524 1524 1523 1523 1523 1524 1525 1526 1527 1529 1531 1532 1534 1535 1537 1538 1539 1540 1541 1542 1544 1545 1547 1548 1549 1550 1551 1552 1553 1554 1555 1556 1557 1558 1558
1520 1516 1511 1509 1511 1514 1519 1522 1523 1522 1521 1523 1523 1523 1523 1523 1523 1522 1523 1524 1525 1526 1527 1528 1530 1532 1533 1534 1536 1537 1538 1540 1541 1542 1543 1545 1546 1548 1549 1550 1551 1552 1553 1555 1555 1556 1557 1558 1559
1519 1518 1514 1512 1512 1514 1521 1523 1523 1523 1522 1523 1523 1522 1522 1522 1522 1522 1522 1523 1524 1525 1526 1527 1528 1530 1531 1533 1534 1536 1537 1539 1540 1541 1543 1544 1546 1547 1549 1550 1551 1553 1553 1555 1556 1557 1558 1559 1559
1519 1518 1511 1511 1514 1517 1522 1523 1524 1523 1523 1523 1522 1522 1522 1521 1520 1521 1521 1522 1523 1524 1525 1526 1527 1528 1530 1531 1533 1534 1536 1537 1539 1540 1542 1544 1545 1547 1548 1550 1551 1552 1553 1555 1556 1557 1558 1559 1560
1519 1514 1512 1518 1519 1521 1523 1523 1524 1523 1522 1521 1521 1520 1519 1519 1519 1519 1519 1519 1520 1521 1523 1524 1525 1526 1528 1529 1530 1532 1534 1536 1537 1539 1541 1543 1544 1546 1547 1549 1550 1552 1553 1554 1555 1556 1558 1559 1560
1520 1517 1519 1521 1522 1523 1523 1523 1523 1522 1519 1519 1519 1518 1517 1517 1517 1518 1518 1518 1518 1519 1521 1522 1523 1524 1526 1527 1528 1530 1531 1533 1535 1537 1539 1541 1543 1544 1546 1547 1549 1551 1552 1554 1555 1556 1558 1559 1560
1521 1522 1522 1523 1523 1523 1523 1522 1522 1520 1519 1518 1518 1517 1516 1515 1515 1515 1516 1517 1517 1518 1519 1520 1521 1522 1524 1525 1526 1528 1529 1530 1532 1534 1536 1538 1540 1542 1544 1546 1548 1549 1551 1552 1554 1555 1557 1558 1559
1521 1523 1523 1523 1523 1523 1523 1521 1520 1518 1518 1517 1516 1515 1514 1514 1514 1515 1515 1516 1516 1516 1517 1518 1519 1520 1521 1523 1524 1525 1527 1528 1530 1532 1534 1536 1538 1540 1542 1544 1546 1548 1549 1551 1552 1554 1555 1557 1558
1522 1523 1522 1522 1522 1522 1521 1518 1518 1514 1516 1515 1514 1513 1512 1512 1512 1513 1513 1513 1514 1514 1515 1515 1516 1517 1519 1520 1521 1523 1524 1526 1527 1529 1531 1533 1535 1537 1539 1541 1543 1546 1548 1549 1551 1553 1554 1556 1557
1523 1522 1520 1520 1520 1520 1520 1513 1513 1512 1514 1513 1512 1511 1511 1510 1510 1510 1510 1511 1511 1512 1513 1513 1514 1515 1516 1517 1519 1520 1521 1523 1524 1526 1528 1530 1532 1534 1537 1539 1541 1543 1545 1547 1549 1551 1553 1554 1556
1521 1517 1513 1515 1517 1517 1518 1505 1508 1510 1510 1510 1510 1509 1508 1508 1508 1508 1509 1509 1509 1509 1510 1511 1511 1512 1513 1514 1516 1517 1519 1520 1522 1523 1525 1527 1529 1532 1534 1536 1538 1541 1543 1545 1547 1549 1551 1553 1554
1514 1510 1508 1511 1514 1514 1512 1504 1506 1508 1508 1507 1507 1507 1506 1506 1506 1506 1506 1506 1506 1507 1507 1508 1508 1509 1510 1511 1512 1514 1516 1517 1519 1520 1522 1524 1526 1529 1531 1533 1536 1538 1540 1543 1545 1547 1549 1551 1552
1511 1508 1508 1508 1511 1512 1508 1503 1503 1505 1506 1505 1505 1505 1504 1503 1503 1503 1503 1504 1504 1504 1505 1505 1505 1506 1507 1508 1509 1511 1513 1514 1515 1517 1518 1521 1522 1525 1528 1530 1533 1535 1538 1540 1542 1544 1546 1548 1550
1516 1514 1509 1508 1511 1511 1504 1501 1499 1501 1502 1502 1502 1502 1502 1501 1502 1501 1501 1501 1501 1501 1501 1501 1502 1502 1503 1504 1505 1506 1508 1510 1512 1513 1515 1517 1519 1522 1524 1527 1530 1532 1534 1537 1539 1541 1543 1546 1548
1517 1513 1509 1508 1511 1510 1504 1499 1496 1498 1499 1500 1500 1500 1500 1499 1498 1498 1497 1497 1498 1498 1498 1498 1498 1499 1500 1501 1502 1503 1505 1507 1509 1510 1511 1513 1515 1518 1521 1524 1526 1528 1531 1533 1536 1538 1540 1542 1545
1515 1513 1511 1511 1509 1509 1507 1493 1492 1494 1496 1498 1498 1498 1498 1497 1496 1495 1495 1494 1494 1494 1494 1494 1495 1495 1496 1498 1499 1500 1501 1503 1505 1507 1508 1510 1512 1514 1517 1520 1523 1525 1527 1529 1532 1534 1537 1539 1542
1512 1514 1515 1513 1509 1502 1505 1490 1485 1490 1492 1493 1494 1495 1495 1494 1494 1493 1493 1492 1491 1491 1491 1490 1491 1492 1493 1494 1495 1496 1498 1499 1501 1503 1504 1506 1508 1511 1513 1516 1519 1521 1523 1526 1528 1530 1533 1536 1537
1515 1516 1515 1512 1510 1507 1504 1500 1481 1489 1488 1490 1492 1493 1493 1493 1492 1491 1490 1490 1489 1488 1487 1487 1488 1488 1489 1490 1491 1493 1494 1495 1498 1499 1501 1503 1505 1507 1509 1512 1515 1517 1519 1522 1524 1527 1529 1532 1534
1518 1516 1513 1511 1508 1501 1498 1497 1479 1485 1488 1489 1491 1491 1490 1490 1489 1488 1488 1487 1486 1485 1484 1484 1484 1484 1485 1486 1487 1489 1490 1491 1493 1496 1497 1499 1501 1503 1505 1508 1511 1513 1516 1518 1520 1523 1526 1528 1531
1518 1513 1502 1496 1493 1486 1499 1497 1485 1487 1489 1490 1490 1490 1489 1488 1487 1486 1484 1483 1482 1481 1481 1480 1480 1480 1481 1482 1483 1485 1486 1488 1489 1491 1493 1495 1497 1499 1501 1504 1507 1509 1512 1514 1517 1519 1522 1524 1527
1520 1516 1507 1497 1485 1482 1497 1490 1484 1490 1490 1490 1489 1488 1487 1486 1485 1483 1482 1480 1479 1478 1478 1477 1477 1477 1478 1478 1479 1481 1483 1484 1486 1488 1490 1491 1493 1495 1497 1500 1502 1505 1508 1510 1513 1515 1518 1520 1523
1520 1517 1520 1514 1510 1503 1485 1487 1486 1487 1488 1488 1488 1487 1486 1484 1483 1480 1479 1477 1476 1475 1474 1474 1474 1474 1475 1476 1477 1477 1479 1480 1482 1484 1486 1488 1489 1491 1494 1496 1498 1501 1503 1506 1509 1511 1514 1517 1519
1525 1523 1520 1513 1502 1489 1481 1482 1480 1484 1486 1487 1487 1486 1484 1483 1481 1478 1476 1475 1473 1472 1471 1471 1471 1471 1472 1472 1473 1474 1475 1477 1478 1479 1481 1483 1485 1487 1489 1491 1493 1496 1499 1502 1504 1507 1510 1512 1515
1525 1525 1521 1515 1511 1495 1482 1478 1487 1488 1488 1489 1488 1486 1485 1482 1480 1477 1475 1473 1471 1470 1469 1468 1469 1469 1469 1469 1470 1471 1472 1473 1474 1475 1476 1478 1480 1482 1484 1486 1489 1491 1494 1497 1500 1502 1505 1508 1510
1524 1522 1521 1513 1511 1510 1494 1487 1490 1491 1490 1490 1488 1487 1484 1481 1478 1476 1473 1471 1469 1468 1466 1466 1466 1466 1466 1466 1467 1467 1468 1468 1469 1470 1471 1474 1475 1477 1479 1481 1483 1486 1489 1492 1494 1497 1500 1503 1505